Regional Weather Roundup
Issued by NWS

Home | Current Version | Previous Version | Graphics & Text | Print | Product List | Glossary On
Versions: 1 2 3 4 5 6 7 8 9 10 11 12 13 14 15 16 17 18 19 20 21 22 23 24 25 26 27 28 29 30 31 32 33 34 35 36 37 38 39 40 41 42 43 44 45 46 47 48 49 50
000
ASUS44 KMEG 230600
RWRTN
TENNESSEE HOURLY STATE WEATHER ROUNDUP
NATIONAL WEATHER SERVICE MEMPHIS TN
100 AM CDT SAT JUL 23 2016

TNZ002-004-019-021-049-052-054-088>092-230700-
WEST TENNESSEE

CITY           SKY/WX    TMP DP  RH WIND       PRES   REMARKS
MEMPHIS INTL   CLOUDY    83  72  69 S6        29.99F
NWS MEMPHIS      N/A     77 N/A N/A MISG        N/A
JACKSON        MOCLDY    75  73  93 CALM      29.99F
DYERSBURG      CLOUDY    75  72  88 MISG      30.00S
PARIS          PTCLDY    72  72 100 SW5       30.03F
$$

TNZ008-025-027-028-033-062-065-066-230700-
NORTH MIDDLE TENNESSEE

CITY           SKY/WX    TMP DP  RH WIND       PRES   REMARKS
NASHVILLE      MOCLDY    78  71  79 CALM      30.01F
CLARKSVILLE    PTCLDY    76  72  87 CALM      30.01F
COOKEVILLE     CLEAR     75  75 100 CALM      30.03F
CROSSVILLE     CLOUDY    76  73  91 CALM      30.10F
$$

TNZ061-075-076-078-094-096-097-230700-
SOUTH MIDDLE TENNESSEE

CITY           SKY/WX    TMP DP  RH WIND       PRES   REMARKS
TULLAHOMA      CLEAR     77  73  88 CALM      30.05S
WINCHESTER     CLEAR     77  73  88 SE3       30.04S
COLUMBIA       PTCLDY   N/A N/A N/A CALM      30.01F
SHELBYVILLE    CLEAR     79  79 100 CALM      30.03S
$$

TNZ017-018-042-046-047-230700-
NORTHEAST TENNESSEE

CITY           SKY/WX    TMP DP  RH WIND       PRES   REMARKS
TRI CITIES     CLOUDY    74  68  81 CALM      30.07F
$$

TNZ012-013-036-069-073-074-230700-
CENTRAL EAST TENNESSEE

CITY           SKY/WX    TMP DP  RH WIND       PRES   REMARKS
KNOXVILLE      CLOUDY    82  70  66 SW5       30.02F
OAK RIDGE      PTCLDY    79  74  84 CALM      30.04F
GATLINBURG     CLEAR     75  70  83 CALM      30.03F
$$

TNZ083-085-099-230700-
SOUTHEAST TENNESSEE

CITY           SKY/WX    TMP DP  RH WIND       PRES   REMARKS
CHATTANOOGA    PTCLDY    79  71  76 SW3       30.02F
$$

SKY/WX REPORTED AS FAIR MEANS FEW OR NO CLOUDS BELOW
12 THOUSAND FEET.





USA.gov is the U.S. government's official web portal to all federal, state and local government web resources and services.